Location: Godiavel Galaoual
(15.2485°N, 12.6604°W)
Time: 00:30:31
(UTC+00:00)

Transit 4A - Pass Details

Date: 21 June 2021
Orbit: 872 x 972 km, 66.8° (Epoch: 29 July)

Event Time Altitude Azimuth Distance (km) Brightness Sun altitude
Rises 20:43:39 0° 321° (NW) 3,466 12.2 -17.9°
Reaches altitude 10° 20:46:24 10° 311° (NW) 2,537 11.4 -18.5°
Maximum altitude 20:51:24 30° 252° (WSW) 1,559 9.5 -19.5°
Drops below altitude 10° 20:56:30 10° 193° (SSW) 2,585 10.0 -20.5°
Enters shadow 20:57:41 - 188° (S) 2,972 10.3 -20.8°
Sets 20:59:21 0° 183° (S) 3,543 - -21.1°
